When you browse on this site, cookies collect data to enhance your experience and personalize the content and advertising you see.
Visit our Privacy Policy to learn more. By continuing to use the site, you agree to this use of cookies and data.
  • en France
  • Liste des pays
  • À 7 jours
  • Température de l'eau
  • Carte météo
  • Widgets météo
  • user-avatar
    Se connecter

    Météo par heure à Briseñas

    Ce jour, 15 Novembre, Vendredi

    Heure Température Précipitation Vent Pression Humidité
    00:00 +15°C° 0.1 mm 0 m/s 637 mmHg 81%
    01:00 +15°C° 0.1 mm 0 m/s 636 mmHg 80%
    02:00 +15°C° 0.1 mm 0 m/s 636 mmHg 80%
    03:00 +15°C° 0 mm 0 m/s 636 mmHg 79%
    04:00 +16°C° 0 mm 1 m/s 636 mmHg 78%
    05:00 +16°C° 0 mm 1 m/s 637 mmHg 77%
    06:00 +18°C° 0 mm 1 m/s 637 mmHg 76%
    07:00 +19°C° 0 mm 1 m/s 638 mmHg 74%
    08:00 +19°C° 0 mm 1 m/s 638 mmHg 72%
    09:00 +20°C° 0 mm 2 m/s 638 mmHg 65%
    10:00 +23°C° 0 mm 2 m/s 639 mmHg 57%
    11:00 +25°C° 0 mm 2 m/s 639 mmHg 50%
    12:00 +26°C° 0.1 mm 2 m/s 638 mmHg 48%
    13:00 +26°C° 0.1 mm 1 m/s 638 mmHg 47%
    14:00 +27°C° 0.1 mm 1 m/s 637 mmHg 46%
    15:00 +25°C° 0.3 mm 1 m/s 637 mmHg 53%
    16:00 +23°C° 0.3 mm 1 m/s 637 mmHg 61%
    17:00 +22°C° 0.3 mm 1 m/s 636 mmHg 68%
    18:00 +21°C° 0.6 mm 1 m/s 637 mmHg 72%
    19:00 +20°C° 0.6 mm 1 m/s 637 mmHg 76%
    20:00 +19°C° 0.6 mm 1 m/s 637 mmHg 80%
    21:00 +19°C° 0.1 mm 1 m/s 637 mmHg 81%
    22:00 +18°C° 0.1 mm 1 m/s 637 mmHg 82%
    23:00 +18°C° 0.1 mm 1 m/s 637 mmHg 84%

    Demain, 16 Novembre, Samedi

    Heure Température Précipitation Vent Pression Humidité
    00:00 +16°C° 0 mm 1 m/s 636 mmHg 83%
    01:00 +16°C° 0 mm 1 m/s 636 mmHg 83%
    02:00 +16°C° 0 mm 1 m/s 636 mmHg 83%
    03:00 +16°C° 0.1 mm 1 m/s 636 mmHg 83%
    04:00 +16°C° 0.1 mm 1 m/s 636 mmHg 82%
    05:00 +16°C° 0.1 mm 1 m/s 636 mmHg 82%
    06:00 +18°C° 0 mm 1 m/s 636 mmHg 79%
    07:00 +18°C° 0 mm 1 m/s 637 mmHg 76%
    08:00 +19°C° 0 mm 1 m/s 638 mmHg 72%
    09:00 +21°C° 0 mm 1 m/s 638 mmHg 65%
    10:00 +24°C° 0 mm 1 m/s 638 mmHg 57%
    11:00 +26°C° 0 mm 1 m/s 639 mmHg 49%
    12:00 +27°C° 0 mm 1 m/s 638 mmHg 47%
    13:00 +27°C° 0 mm 1 m/s 637 mmHg 45%
    14:00 +25°C° 0 mm 0 m/s 636 mmHg 43%
    15:00 +25°C° 0 mm 1 m/s 636 mmHg 49%
    16:00 +24°C° 0 mm 1 m/s 636 mmHg 55%
    17:00 +22°C° 0 mm 1 m/s 636 mmHg 61%
    18:00 +21°C° 0 mm 1 m/s 636 mmHg 65%
    19:00 +20°C° 0 mm 1 m/s 636 mmHg 68%
    20:00 +20°C° 0 mm 1 m/s 636 mmHg 72%
    21:00 +19°C° 0.1 mm 1 m/s 636 mmHg 75%
    22:00 +19°C° 0.1 mm 1 m/s 636 mmHg 77%
    23:00 +18°C° 0.1 mm 1 m/s 636 mmHg 80%

    Après-demain, 17 Novembre, Dimanche

    Heure Température Précipitation Vent Pression Humidité
    00:00 +18°C° 0.1 mm 1 m/s 636 mmHg 82%
    01:00 +16°C° 0.1 mm 1 m/s 635 mmHg 84%
    02:00 +16°C° 0.1 mm 1 m/s 635 mmHg 87%
    03:00 +16°C° 0.1 mm 1 m/s 635 mmHg 87%
    04:00 +15°C° 0.1 mm 0 m/s 635 mmHg 87%
    05:00 +15°C° 0.1 mm 0 m/s 635 mmHg 87%
    06:00 +15°C° 0 mm 0 m/s 635 mmHg 85%
    07:00 +16°C° 0 mm 0 m/s 636 mmHg 83%
    08:00 +16°C° 0 mm 0 m/s 636 mmHg 81%
    09:00 +17°C° 0 mm 0 m/s 636 mmHg 77%
    10:00 +20°C° 0 mm 1 m/s 636 mmHg 73%
    11:00 +21°C° 0 mm 1 m/s 636 mmHg 69%
    12:00 +22°C° 0.1 mm 1 m/s 636 mmHg 63%
    13:00 +23°C° 0.1 mm 1 m/s 636 mmHg 58%
    14:00 +25°C° 0.1 mm 1 m/s 636 mmHg 53%
    15:00 +23°C° 0.1 mm 1 m/s 635 mmHg 57%
    16:00 +22°C° 0.1 mm 1 m/s 635 mmHg 61%
    17:00 +21°C° 0.1 mm 1 m/s 635 mmHg 64%
    18:00 +20°C° 0 mm 1 m/s 636 mmHg 66%
    19:00 +18°C° 0 mm 0 m/s 636 mmHg 68%
    20:00 +18°C° 0 mm 0 m/s 636 mmHg 71%
    21:00 +17°C° 0.1 mm 0 m/s 636 mmHg 72%
    22:00 +17°C° 0.1 mm 0 m/s 636 mmHg 73%
    23:00 +17°C° 0.1 mm 0 m/s 636 mmHg 74%

    18 Novembre, Lundi

    Heure Température Précipitation Vent Pression Humidité
    00:00 +17°C° 0 mm 0 m/s 636 mmHg 75%
    01:00 +16°C° 0 mm 0 m/s 635 mmHg 77%
    02:00 +16°C° 0 mm 0 m/s 635 mmHg 78%
    03:00 +15°C° 0 mm 0 m/s 635 mmHg 81%
    04:00 +14°C° 0 mm 0 m/s 634 mmHg 84%
    05:00 +14°C° 0 mm 0 m/s 634 mmHg 87%
    06:00 +16°C° 0 mm 0 m/s 635 mmHg 80%
    07:00 +17°C° 0 mm 0 m/s 636 mmHg 74%
    08:00 +19°C° 0 mm 0 m/s 636 mmHg 68%
    09:00 +22°C° 0 mm 0 m/s 637 mmHg 59%
    10:00 +24°C° 0 mm 0 m/s 637 mmHg 51%
    11:00 +27°C° 0 mm 0 m/s 637 mmHg 43%
    12:00 +28°C° 0 mm 1 m/s 637 mmHg 43%
    13:00 +28°C° 0 mm 2 m/s 636 mmHg 42%
    14:00 +28°C° 0 mm 2 m/s 635 mmHg 42%
    15:00 +26°C° 0 mm 2 m/s 635 mmHg 49%
    16:00 +24°C° 0 mm 2 m/s 634 mmHg 56%
    17:00 +22°C° 0 mm 1 m/s 634 mmHg 62%
    18:00 +21°C° 0 mm 1 m/s 634 mmHg 66%
    19:00 +20°C° 0 mm 1 m/s 635 mmHg 69%
    20:00 +20°C° 0 mm 1 m/s 635 mmHg 73%
    21:00 +19°C° 0 mm 1 m/s 635 mmHg 75%
    22:00 +17°C° 0 mm 0 m/s 635 mmHg 77%
    23:00 +16°C° 0 mm 0 m/s 635 mmHg 79%

    19 Novembre, Mardi

    Heure Température Précipitation Vent Pression Humidité
    00:00 +16°C° 0 mm 0 m/s 634 mmHg 81%
    01:00 +15°C° 0 mm 0 m/s 634 mmHg 82%
    02:00 +15°C° 0 mm 0 m/s 634 mmHg 84%
    03:00 +15°C° 0 mm 0 m/s 634 mmHg 85%
    04:00 +14°C° 0 mm 0 m/s 634 mmHg 87%
    05:00 +14°C° 0 mm 0 m/s 634 mmHg 88%
    06:00 +16°C° 0 mm 0 m/s 634 mmHg 81%
    07:00 +18°C° 0 mm 0 m/s 635 mmHg 74%
    08:00 +20°C° 0 mm 0 m/s 636 mmHg 68%
    09:00 +22°C° 0 mm 0 m/s 636 mmHg 59%
    10:00 +25°C° 0 mm 0 m/s 637 mmHg 51%
    11:00 +30°C° 0 mm 1 m/s 637 mmHg 43%
    12:00 +30°C° 0 mm 1 m/s 637 mmHg 41%
    13:00 +29°C° 0 mm 1 m/s 636 mmHg 40%
    14:00 +29°C° 0 mm 1 m/s 635 mmHg 39%
    15:00 +27°C° 0 mm 1 m/s 635 mmHg 47%
    16:00 +25°C° 0 mm 1 m/s 634 mmHg 55%
    17:00 +23°C° 0 mm 1 m/s 634 mmHg 63%
    18:00 +22°C° 0 mm 1 m/s 634 mmHg 68%
    19:00 +21°C° 0 mm 1 m/s 635 mmHg 74%
    20:00 +20°C° 0 mm 1 m/s 635 mmHg 79%
    21:00 +19°C° 0 mm 1 m/s 635 mmHg 82%
    22:00 +19°C° 0 mm 1 m/s 635 mmHg 84%
    23:00 +18°C° 0 mm 1 m/s 635 mmHg 86%

    20 Novembre, Mercredi

    Heure Température Précipitation Vent Pression Humidité
    00:00 +18°C° 0 mm 1 m/s 635 mmHg 88%
    01:00 +16°C° 0 mm 0 m/s 634 mmHg 90%
    02:00 +15°C° 0 mm 0 m/s 634 mmHg 91%
    03:00 +15°C° 0 mm 0 m/s 634 mmHg 92%
    04:00 +15°C° 0 mm 0 m/s 634 mmHg 93%
    05:00 +15°C° 0 mm 0 m/s 634 mmHg 94%
    06:00 +16°C° 0 mm 0 m/s 635 mmHg 88%
    07:00 +18°C° 0 mm 0 m/s 636 mmHg 82%
    08:00 +19°C° 0 mm 0 m/s 636 mmHg 76%
    09:00 +23°C° 0 mm 1 m/s 637 mmHg 67%
    10:00 +25°C° 0 mm 1 m/s 637 mmHg 59%
    11:00 +27°C° 0 mm 1 m/s 637 mmHg 51%
    12:00 +27°C° 0 mm 2 m/s 636 mmHg 49%
    13:00 +27°C° 0 mm 2 m/s 636 mmHg 47%
    14:00 +27°C° 0 mm 3 m/s 635 mmHg 46%
    15:00 +26°C° 0.1 mm 2 m/s 635 mmHg 53%
    16:00 +24°C° 0.1 mm 2 m/s 635 mmHg 61%
    17:00 +22°C° 0.1 mm 1 m/s 635 mmHg 69%
    18:00 +21°C° 0.1 mm 1 m/s 635 mmHg 74%
    19:00 +20°C° 0.1 mm 1 m/s 636 mmHg 79%
    20:00 +19°C° 0.1 mm 1 m/s 636 mmHg 84%
    21:00 +19°C° 0 mm 1 m/s 636 mmHg 86%
    22:00 +18°C° 0 mm 1 m/s 636 mmHg 88%
    23:00 +16°C° 0 mm 0 m/s 636 mmHg 90%
    Voir plus